Flag for Germany Weather past 2 weeks in Neuburg an der Donau, Bavaria, Germany

Now
55 °F

Cool.


Feels Like: 55 °F
Forecast: 45 / 54 °F
Wind: 3 mph from Southwest

Location: Neuburg / Donau

Current Time: Sep 21, 2014 at 4:40:37 AM

Latest Report: Sep 21, 2014 at 3:20 AM


Visibility: N/A

Pressure: 30.01 "Hg

Humidity: 94%

Dew point: 54 °F

Location of Neuburg an der DonauLocation

Historic Weather in Neuburg an der Donau — Graph

°F

Neuburg an der Donau temperature yesterday

Maximum temperature yesterday: 72 °F (at 3:20 PM)
Minimum temperature yesterday: 57 °F (at 11:20 PM)
Average temperature yesterday: 62 °F

Past Weeks' High & Low Weather Summary

 TemperatureHumidityPressure
High79 °F (Sep 7, 3:20 PM)100% (Sep 6, 3:20 AM)30.12 "Hg (Sep 6, 3:20 AM)
Low46 °F (Sep 17, 5:20 AM)48% (Sep 7, 5:20 PM)29.89 "Hg (Sep 6, 4:20 PM)
Average60 °F86%30.00 "Hg
* Reported Sep 6 3:20 AM — Sep 21 3:20 AM, Neuburg an der Donau, Weather by CustomWeather, © 2014

Note: Actual official high and low records may vary slightly from our data, if they occured in-between our weather recording intervals... More about our weather records

Advertising

Neuburg an der Donau weather history for previous 24 hours

 ConditionsComfort  
Time TempWeatherWind HumidityBarometerVisibility
3:20 AM
Sep 21
55 °FCool.3 mph94%30.01 "HgN/A
2:20 AM55 °FCool.2 mph100%30.01 "HgN/A
1:20 AM55 °FCool.No wind100%30.01 "HgN/A
12:20 AM55 °FCool.2 mph100%30.01 "HgN/A
11:20 PM
Sep 20
57 °FCool.1 mph100%30.01 "HgN/A
10:20 PM59 °FCool.No wind100%30.01 "HgN/A
9:20 PM61 °FCool.1 mph94%30.01 "HgN/A
8:20 PM63 °FMild.1 mph94%30.01 "HgN/A
7:20 PM64 °FMild.8 mph88%29.98 "HgN/A
3:20 PM72 °FMild.10 mph69%29.98 "HgN/A
2:20 PM70 °FMild.10 mph69%30.01 "HgN/A
1:20 PM66 °FMild.8 mph83%30.01 "HgN/A
12:20 PM63 °FMild.8 mph88%30.01 "HgN/A
11:20 AM64 °FMild.6 mph88%30.01 "HgN/A
10:20 AM64 °FMild.7 mph88%30.01 "HgN/A
9:20 AM64 °FMild.2 mph88%30.01 "HgN/A
8:20 AM61 °FCool.1 mph94%29.98 "HgN/A
7:20 AM59 °FCool.2 mph100%30.01 "HgN/A
6:20 AM59 °FCool.No wind100%30.01 "HgN/A
5:20 AM59 °FCool.1 mph94%30.01 "HgN/A
4:20 AM59 °FCool.2 mph100%30.01 "HgN/A
Weather by CustomWeather, © 2014

See weather overviewHow to use our weather pages